Tracking 30995 objects as of 7-Jul-2025
HD Live streaming from Space Station
objects crossing your sky now

STARLINK-3609

Track STARLINK-3609 now!
10-day predictions
STARLINK-3609 is classified as:


NORAD ID: 51808
Int'l Code: 2022-017AS
Perigee: 546.0 km
Apogee: 547.7 km
Inclination: 53.2 °
Period: 95.4 minutes
Semi major axis: 6917 km
RCS: Unknown
Launch date: February 25, 2022
Source: United States (US)
Launch site: AIR FORCE WESTERN TEST RANGE (AFWTR)
Your satellite tracking list
METEOR 2-17 DEB
Track 1 satellite(s)




NASA's NSSDC Master Catalog

Two Line Element Set (TLE):
1 51808U 22017AS  25186.81402345  .00000428  00000-0  44996-4 0  9993
2 51808  53.2189   7.3897 0001228  99.2945 260.8186 15.08836233186697
Source of the keplerian elements: AFSPC